Torna al catalogo

STARLINK-5906

AttivoComunicazioniVLEO
NORAD 55962·PAYLOAD·🇺🇸 United States

Lanciato Mar 17, 2023 da Vandenberg Space Force Base

Loading…

Prossimi Passaggi (prossime 24 ore)

TLE

AggiornatoSource: CelesTrak SupGP

Epoca: Sep 14, 2026, 20:47 UTC

1 55962C 23037BA  26257.86645833 -.00045986  00000+0 -38538-2 0  2576
2 55962  70.0007 147.6091 0003033 268.8724 197.7330 14.98354765    10

Traccia STARLINK-5906 in tempo reale con AllMySat

Download on the App Store